Regional Weather Roundup
Issued by NWS

Home | Current Version | Previous Version | Text Only | Print | Product List | Glossary Off
Versions: 1 2 3 4 5 6 7 8 9 10 11 12 13 14 15 16 17 18 19 20 21 22 23 24 25 26 27 28 29 30 31 32 33 34 35 36 37 38 39 40 41 42 43 44 45 46 47 48

000
ASUS45 KBOI 120910
RWRID
WEATHER ROUNDUP FOR IDAHO
NATIONAL WEATHER SERVICE BOISE ID
300 AM MDT SAT JUL 12 2014

NOTE: "FAIR" INDICATES FEW OR NO CLOUDS BELOW 12000 FEET
WITH NO SIGNIFICANT WEATHER AND/OR OBSTRUCTIONS TO VISIBILITY

IDZ012-014-121000-
SOUTHWEST IDAHO


CITY           SKY/WX    TMP DP  RH WIND       PRES   REMARKS
BOISE          CLOUDY    80  44  27 NE5       30.04S
CALDWELL       CLOUDY    77  48  36 W8        30.04S
MOUNTAIN HOME  CLOUDY    79  48  33 SW5       30.03S
$$

IDZ016-017-121000-
SOUTHCENTRAL IDAHO


CITY           SKY/WX    TMP DP  RH WIND       PRES   REMARKS
BURLEY         CLOUDY    67  53  61 SW5       30.09S
JEROME         CLOUDY    74  50  42 SW8       30.10R
TWIN FALLS     CLOUDY    83  40  21 W28G36    30.06F
$$

IDZ019>023-121000-
SOUTHEAST IDAHO


CITY           SKY/WX    TMP DP  RH WIND       PRES   REMARKS
IDAHO FALLS    PTCLDY    63  56  78 CALM      30.16S
POCATELLO      MOCLDY    66  53  63 S8        30.15R
REXBURG        PTCLDY    60  53  77 NE5       30.18S
$$

IDZ006-010-011-018-031-032-121000-
CENTRAL IDAHO MOUNTAINS


CITY           SKY/WX    TMP DP  RH WIND       PRES   REMARKS
MCCALL         CLOUDY    69  40  34 N3        30.17R
HAILEY         CLOUDY    64  52  63 N3        30.18S
STANLEY          N/A     60  39  45 S3        30.27R
SALMON         PTCLDY    64  43  45 S3        30.11R
CHALLIS        PTCLDY    67  38  34 NW8       30.15S
$$

IDZ002-004-006-007-026-121000-
NORTHERN IDAHO


CITY           SKY/WX    TMP DP  RH WIND       PRES   REMARKS
LEWISTON       CLEAR     72  39  30 S3        29.98S
LOWELL           N/A     61  53  75 CALM      30.05R
COEUR D`ALENE  CLEAR     63  54  72 SE7       30.05R
MULLAN PASS    CLEAR     63  41  44 SE6       30.28S
$$


USA.gov is the U.S. government's official web portal to all federal, state and local government web resources and services.